Location: Earls Croome
(52.0667°N, 2.2000°W)
Time: 07:47:35
(UTC+00:00)

Cosmos 2082 Rocket - Pass Details

Date: 17 November 2019
Orbit: 833 x 853 km, 71.0° (Epoch: 15 December)

Event Time Altitude Azimuth Distance (km) Brightness Sun altitude
Exits shadow 04:25:25 79° 163° (SSE) 874 2.1 -28.3°
Maximum altitude 04:25:40 82° 119° (ESE) 867 2.2 -28.3°
Drops below altitude 10° 04:31:24 10° 32° (NNE) 2,490 5.0 -27.4°
Sets 04:33:52 0° 32° (NNE) 3,428 5.8 -27.0°
